[[{"header":{"parameterUnit":"m.s-1","parameterCategory":1,"la1":30.2991,"la2":30.254,"lo1":-89.0895,"lo2":-89.0444,"dy":0.0017,"dx":0.0017,"nx":28,"ny":28,"refTime":"2024-04-25T03:00:00:Z","depth":0,"parameterNumber":2,"parameterNumberName":"U-component_of_WINDS"},"data":[0,0,0,0,0,0,0,0,0,0,0,0,0,0,0,0,0,0,0,0,0,0,0,0,0,0,0,0,0,0,0,0,0,0,0,0,0,0,0,0,0,0,0,0,0,0,0,0,0,0,0,0,0,0,0,0,0,0,-1.3719,-1.3718,0,-1.3655,-1.3654,-1.3653,-1.3625,-1.3625,-1.3625,-1.3625,-1.3556,-1.3555,-1.3553,0,0,0,0,0,0,0,0,0,0,0,0,0,-1.3816,-1.3814,-1.3719,-1.3718,-1.3717,-1.3655,-1.3654,-1.3653,-1.3625,-1.3625,-1.3625,-1.3625,-1.3557,-1.3555,-1.3553,0,0,0,0,0,0,0,0,0,0,0,0,0,-1.3765,-1.3814,-1.3719,-1.3696,-1.3693,-1.3655,-1.3654,-1.3653,-1.3625,-1.3625,-1.3625,-1.3625,-1.3558,-1.3555,-1.3552,-1.3532,0,0,-1.3544,-1.3542,0,0,0,0,0,0,0,0,-1.3768,-1.3761,-1.37,-1.3697,-1.3694,-1.3648,-1.3663,-1.3612,-1.3625,-1.365,-1.3625,-1.3625,-1.3587,-1.3581,-1.3569,-1.3529,-1.3526,-1.3543,-1.3542,-1.354,-1.3539,0,0,0,0,0,0,0,-1.3772,-1.3764,-1.3693,-1.3699,-1.3695,-1.3688,-1.3681,-1.3653,-1.3618,-1.3648,-1.3646,-1.3639,-1.3585,-1.3572,-1.3567,-1.3525,-1.3543,-1.3541,-1.3539,-1.3538,-1.3467,-1.3467,0,0,0,0,0,0,-1.3779,-1.3767,-1.3695,-1.3691,-1.3732,-1.3686,-1.3678,-1.3662,-1.3619,-1.3612,-1.3639,-1.3638,-1.3577,-1.3571,-1.3565,-1.3539,-1.354,-1.3538,-1.3536,-1.3467,-1.3467,-1.3467,0,0,0,0,0,0,-1.3781,-1.3773,-1.3698,-1.3729,-1.3719,-1.3684,-1.3667,-1.3661,-1.3648,-1.3612,-1.3605,-1.3632,-1.3576,-1.3569,-1.3541,-1.3536,-1.3536,-1.3534,-1.3467,-1.3467,-1.3467,-1.3487,0,0,0,0,0,0,-1.3784,-1.3774,-1.3766,-1.3729,-1.3717,-1.3675,-1.3667,-1.366,-1.3643,-1.3641,-1.3603,-1.3597,-1.3576,-1.3545,-1.3538,-1.3532,-1.3531,-1.3468,-1.3467,-1.3467,-1.3487,-1.3488,-1.3489,0,0,0,0,0,-1.3788,-1.3773,-1.3765,-1.3757,-1.3706,-1.3675,-1.3668,-1.3645,-1.3643,-1.3635,-1.3612,-1.3598,-1.3538,-1.3543,-1.3534,-1.3528,-1.3468,-1.3467,-1.3467,-1.3486,-1.3488,-1.3489,0,0,0,0,0,0,-1.3808,-1.3767,-1.3759,-1.3731,-1.3707,-1.367,-1.3659,-1.3647,-1.3622,-1.3621,-1.3592,-1.3584,-1.3559,-1.3541,-1.3546,-1.3507,-1.3502,-1.35,-1.352,-1.352,-1.3521,-1.3526,-1.3529,0,0,0,0,0,-1.381,-1.3789,-1.3754,-1.3733,-1.3722,-1.3693,-1.3678,-1.3663,-1.3636,-1.3625,-1.36,-1.3575,-1.355,-1.3534,-1.351,-1.3485,-1.3477,-1.3476,-1.3477,-1.3478,-1.3476,-1.3463,-1.3463,-1.3466,-1.3466,-1.3466,0,0,-1.3812,-1.3787,-1.3775,-1.3737,-1.3716,-1.3695,-1.3684,-1.3661,-1.3645,-1.3621,-1.3594,-1.3576,-1.3545,-1.3519,-1.3507,-1.3503,-1.3474,-1.3477,-1.3478,-1.3476,-1.3463,-1.3463,-1.3463,-1.3465,-1.3465,-1.3465,0,0,-1.3805,-1.3785,-1.3766,-1.3746,-1.3716,-1.3698,-1.3693,-1.3659,-1.3646,-1.3619,-1.3602,-1.3582,-1.354,-1.352,-1.3504,-1.3494,-1.3481,-1.3487,-1.3491,-1.3479,-1.3478,-1.3478,-1.3475,-1.3475,-1.3485,-1.3485,-1.3485,0,-1.3812,-1.3779,-1.3757,-1.3737,-1.3721,-1.3701,-1.3682,-1.3664,-1.3627,-1.3616,-1.3613,-1.3562,-1.354,-1.351,-1.3508,-1.3496,-1.3491,-1.349,-1.3481,-1.348,-1.3479,-1.3476,-1.3475,-1.3486,-1.3486,-1.3486,-1.3486,0,-1.3789,-1.3768,-1.3756,-1.3723,-1.3706,-1.3686,-1.3662,-1.3647,-1.3634,-1.3616,-1.359,-1.3563,-1.3534,-1.3526,-1.3512,-1.3495,-1.3494,-1.3486,-1.348,-1.348,-1.3477,-1.3476,-1.3488,-1.3487,-1.3487,-1.3487,0,0,-1.3791,-1.3749,-1.3745,-1.3731,-1.3698,-1.368,-1.3661,-1.3633,-1.3622,-1.3598,-1.3581,-1.3548,-1.3542,-1.3524,-1.3508,-1.3498,-1.3493,-1.3491,-1.349,-1.3493,-1.3474,-1.3479,-1.3478,-1.3485,-1.3485,-1.3484,-1.3476,0,-1.378,-1.3744,-1.3726,-1.3698,-1.3678,-1.3661,-1.3644,-1.3622,-1.3605,-1.3586,-1.3568,-1.3545,-1.3538,-1.3528,-1.3517,-1.3496,-1.3489,-1.3496,-1.3469,-1.3468,-1.3476,-1.3476,-1.3481,-1.3475,-1.3475,-1.3475,-1.3474,0,-1.3762,-1.374,-1.3711,-1.3683,-1.3674,-1.3659,-1.3634,-1.3616,-1.3592,-1.3581,-1.3563,-1.3548,-1.3527,-1.3525,-1.3496,-1.3502,-1.349,-1.3478,-1.3478,-1.3473,-1.3471,-1.3472,-1.3472,-1.3471,-1.3472,-1.3472,-1.3472,0,-1.3767,-1.373,-1.3709,-1.3697,-1.3664,-1.3654,-1.3639,-1.3615,-1.3601,-1.358,-1.357,-1.3546,-1.3533,-1.3514,-1.3494,-1.3494,-1.3468,-1.3463,-1.3458,-1.3459,-1.3452,-1.3452,-1.345,-1.3445,-1.3445,-1.3445,-1.3445,0,-1.3756,-1.3739,-1.3711,-1.3698,-1.3679,-1.3658,-1.364,-1.3624,-1.3603,-1.3587,-1.357,-1.3555,-1.3529,-1.3511,-1.3495,-1.3475,-1.3468,-1.3459,-1.3455,-1.346,-1.3461,-1.3451,-1.3451,-1.3445,-1.3445,-1.3445,-1.3445,0,-1.3757,-1.3738,-1.3713,-1.3685,-1.3678,-1.3665,-1.3641,-1.3627,-1.3612,-1.3591,-1.3585,-1.356,-1.3538,-1.3516,-1.3486,-1.3475,-1.3455,-1.345,-1.3464,-1.3462,-1.3458,-1.3459,-1.3448,-1.3446,-1.3443,-1.3443,-1.3443,0,-1.3751,-1.3738,-1.371,-1.3698,-1.3685,-1.3666,-1.3652,-1.3632,-1.3619,-1.3592,-1.3582,-1.356,-1.3541,-1.3507,-1.3485,-1.3463,-1.3457,-1.3455,-1.3453,-1.346,-1.3457,-1.3458,-1.3457,-1.3455,-1.3455,-1.3455,-1.3455,0,-1.3743,-1.3735,-1.3717,-1.3696,-1.368,-1.3662,-1.3644,-1.3635,-1.3612,-1.3598,-1.3576,-1.3561,-1.3533,-1.3511,-1.3487,-1.3471,-1.346,-1.3457,-1.3454,-1.3459,-1.3468,-1.3464,-1.3466,-1.3456,-1.3456,-1.3456,-1.3456,-1.3456,-1.3741,-1.3729,-1.3708,-1.3689,-1.3673,-1.3657,-1.3644,-1.3628,-1.361,-1.3586,-1.3575,-1.3554,-1.3532,-1.3499,-1.3485,-1.3468,-1.3464,-1.3461,-1.346,-1.3459,-1.3461,-1.3472,-1.3463,-1.3463,-1.3463,-1.3463,-1.3463,0,-1.3732,-1.3719,-1.3701,-1.3677,-1.3662,-1.3655,-1.3635,-1.3623,-1.3605,-1.3586,-1.3568,-1.3545,-1.3524,-1.3503,-1.3481,-1.3472,-1.3466,-1.3467,-1.3467,-1.3464,-1.3465,-1.3469,-1.3472,-1.3472,-1.3472,-1.3472,-1.3472,-1.3472,-1.3726,-1.3707,-1.3697,-1.367,-1.3657,-1.3637,-1.3626,-1.3612,-1.3597,-1.3572,-1.3556,-1.3543,-1.3523,-1.3501,-1.3482,-1.3476,-1.3469,-1.3471,-1.3464,-1.3465,-1.3464,-1.3463,-1.3467,-1.347,-1.347,-1.3465,-1.3465,-1.3465]},{"header":{"parameterUnit":"m.s-1","parameterCategory":1,"la1":30.2991,"la2":30.254,"lo1":-89.0895,"lo2":-89.0444,"dy":0.0017,"dx":0.0017,"nx":28,"ny":28,"refTime":"2024-04-25T03:00:00:Z","depth":0,"parameterNumber":3,"parameterNumberName":"V-component_of_WINDS"},"data":[0,0,0,0,0,0,0,0,0,0,0,0,0,0,0,0,0,0,0,0,0,0,0,0,0,0,0,0,0,0,0,0,0,0,0,0,0,0,0,0,0,0,0,0,0,0,0,0,0,0,0,0,0,0,0,0,0,0,2.991,2.991,0,2.9902,2.9902,2.9902,2.9933,2.9934,2.9935,2.9936,2.9921,2.992,2.9919,0,0,0,0,0,0,0,0,0,0,0,0,0,2.9949,2.9948,2.991,2.991,2.991,2.9902,2.9902,2.9902,2.9933,2.9934,2.9935,2.9936,2.9921,2.992,2.9918,0,0,0,0,0,0,0,0,0,0,0,0,0,2.9935,2.9948,2.991,2.9925,2.9926,2.9902,2.9902,2.9902,2.9932,2.9934,2.9935,2.9937,2.9922,2.992,2.9918,2.9878,0,0,2.9912,2.9912,0,0,0,0,0,0,0,0,2.9936,2.9934,2.9923,2.9924,2.9925,2.992,2.991,2.9894,2.9932,2.993,2.9936,2.9937,2.9919,2.9918,2.9913,2.9877,2.9877,2.9912,2.9911,2.991,2.991,0,0,0,0,0,0,0,2.9937,2.9934,2.9907,2.9923,2.9924,2.993,2.993,2.9907,2.9916,2.993,2.9932,2.9931,2.992,2.9914,2.9913,2.9877,2.9912,2.9911,2.9909,2.9909,2.9808,2.9806,0,0,0,0,0,0,2.9937,2.9935,2.9907,2.9907,2.9934,2.9928,2.9928,2.992,2.9917,2.9918,2.993,2.9933,2.9917,2.9915,2.9912,2.9864,2.991,2.9909,2.9907,2.9809,2.9807,2.9806,0,0,0,0,0,0,2.9938,2.9934,2.9908,2.9922,2.9919,2.9926,2.9917,2.9919,2.9914,2.9917,2.9918,2.9923,2.9918,2.9915,2.9887,2.9864,2.9908,2.9906,2.9811,2.9809,2.9806,2.9769,0,0,0,0,0,0,2.9939,2.9934,2.992,2.9921,2.9918,2.9883,2.9916,2.9918,2.9911,2.9914,2.991,2.9911,2.9919,2.9889,2.9885,2.9863,2.9904,2.9813,2.981,2.9807,2.9772,2.9766,2.976,0,0,0,0,0,2.994,2.9909,2.9919,2.9916,2.9901,2.9882,2.988,2.9891,2.9909,2.9894,2.9896,2.9911,2.9868,2.9886,2.9881,2.9858,2.9814,2.9811,2.9807,2.9775,2.9767,2.976,0,0,0,0,0,0,2.9902,2.9909,2.9921,2.9889,2.9885,2.9888,2.9869,2.9883,2.9872,2.9875,2.9888,2.9887,2.9856,2.9854,2.9875,2.9819,2.9844,2.9839,2.9821,2.9813,2.9807,2.9807,2.9903,0,0,0,0,0,2.9891,2.9877,2.9883,2.9854,2.9852,2.9861,2.9853,2.9863,2.9858,2.9856,2.9856,2.9849,2.9835,2.9824,2.981,2.9773,2.9771,2.9754,2.9748,2.9743,2.9738,2.9718,2.971,2.9794,2.9794,2.9794,0,0,2.9866,2.9868,2.9858,2.9847,2.9845,2.9829,2.9859,2.9841,2.9828,2.9852,2.9826,2.9826,2.982,2.9786,2.9772,2.9784,2.9715,2.9739,2.9735,2.9733,2.9713,2.9705,2.9698,2.9792,2.9792,2.9793,0,0,2.9812,2.9813,2.979,2.9787,2.9785,2.9791,2.9785,2.9786,2.9787,2.9762,2.978,2.9765,2.9739,2.9733,2.9727,2.9673,2.9686,2.9668,2.9635,2.9615,2.9608,2.9602,2.9582,2.9574,2.9664,2.9664,2.9664,0,2.9781,2.9759,2.9775,2.9756,2.975,2.9774,2.9749,2.9745,2.9737,2.9732,2.9747,2.9715,2.9713,2.9678,2.9665,2.966,2.9652,2.9668,2.9608,2.9603,2.9597,2.9578,2.957,2.9661,2.9662,2.9662,2.9662,0,2.9721,2.9705,2.9686,2.968,2.9672,2.965,2.9661,2.9651,2.9661,2.9666,2.9639,2.9637,2.9623,2.9616,2.9625,2.9583,2.959,2.9607,2.9632,2.9587,2.9569,2.9561,2.9658,2.9659,2.966,2.966,0,0,2.9641,2.9646,2.9638,2.9636,2.9635,2.9623,2.9602,2.959,2.9581,2.9575,2.9556,2.9535,2.955,2.9543,2.9552,2.9534,2.949,2.9552,2.9552,2.9539,2.9442,2.9428,2.9419,2.9499,2.9498,2.9497,2.9442,0,2.9588,2.9553,2.9567,2.9531,2.9516,2.9539,2.952,2.9517,2.9521,2.9508,2.9511,2.9495,2.9517,2.9513,2.9497,2.9499,2.947,2.9503,2.948,2.9479,2.9479,2.941,2.9396,2.9344,2.9435,2.9434,2.9433,0,2.952,2.9514,2.9476,2.9479,2.9473,2.9456,2.9447,2.9435,2.9431,2.9435,2.9428,2.9441,2.9419,2.9446,2.9414,2.9436,2.9428,2.9428,2.9426,2.9422,2.9452,2.9403,2.9327,2.9319,2.9422,2.9423,2.9423,0,2.9465,2.9447,2.9422,2.9419,2.9422,2.9409,2.9409,2.9408,2.94,2.9391,2.9386,2.9375,2.9368,2.9358,2.9367,2.9385,2.9333,2.9361,2.9334,2.9334,2.932,2.9321,2.924,2.9318,2.9318,2.9318,2.9318,0,2.9403,2.9378,2.9397,2.9381,2.9355,2.9371,2.9343,2.9346,2.9344,2.9328,2.9348,2.9332,2.9346,2.9331,2.9337,2.931,2.9307,2.9308,2.9309,2.9305,2.9305,2.9298,2.9301,2.9316,2.9316,2.9317,2.9317,0,2.9335,2.9347,2.9321,2.9326,2.9327,2.9307,2.9311,2.9296,2.9302,2.9281,2.9278,2.9286,2.927,2.9278,2.9261,2.9265,2.9229,2.9236,2.9231,2.9232,2.9204,2.9206,2.9115,2.9104,2.919,2.9189,2.9188,0,2.9294,2.9276,2.928,2.9272,2.9271,2.9258,2.9251,2.9266,2.9257,2.9253,2.9238,2.9224,2.9213,2.9185,2.9189,2.9175,2.9181,2.9151,2.9179,2.9175,2.9179,2.9179,2.9177,2.9144,2.9143,2.9142,2.9142,0,2.9219,2.9226,2.9216,2.9208,2.9199,2.9193,2.9189,2.918,2.9196,2.9185,2.917,2.9162,2.9145,2.913,2.9119,2.9117,2.9131,2.9133,2.9126,2.912,2.9117,2.9117,2.9213,2.9134,2.9135,2.9136,2.9136,2.9136,2.9162,2.9147,2.9148,2.9136,2.9135,2.913,2.9117,2.9122,2.911,2.9099,2.9108,2.909,2.9086,2.9073,2.907,2.9054,2.9066,2.9056,2.9053,2.905,2.9046,2.9121,2.9052,2.9052,2.9053,2.9053,2.9053,0,2.9087,2.9089,2.9078,2.9072,2.9063,2.908,2.9076,2.9066,2.905,2.9047,2.9037,2.9019,2.9005,2.9008,2.8994,2.8981,2.8987,2.8977,2.8977,2.8976,2.9036,2.9043,2.8972,2.8972,2.8972,2.8973,2.8973,2.8973,2.9047,2.9023,2.903,2.9005,2.9007,2.899,2.8986,2.8982,2.8979,2.8959,2.8948,2.8951,2.895,2.8937,2.8924,2.8926,2.8919,2.8906,2.8909,2.8964,2.8972,2.898,2.8986,2.8905,2.8905,2.8851,2.885,2.885]}]]